LiveATC.Net - Listen to live air traffic control over the Internet!


ICAO: LSGS  IATA: SIR   Airport: Sion International Airport
City: Sion
Country: Switzerland   Continent: Europe
LSGS METAR Weather: LSGS 291050Z 25014KT 9999 SCT070 SCT100 03/M01 Q1007
LSGS Flight Activity (FlightAware)
LSGS Webcam:  (Airport Webcams) 

LSGS Gnd/Twr/App
Feed Status: DOWN
Last heard on: 2021-11-27 05:59:05 (2 days 5 hours 7 minutes ago)
Archive Access: LSGS Gnd/Twr/App
FacilityFrequency
Alpine Jet Service Handling131.675
Sion Airport Handling131.475
Sion Approach (IFR ARR MIL OFF)126.825
Sion Ground121.700
Sion Tower118.275
LiveATC LSGS - About us

NOTICE

Unauthorized use prohibited. See LiveATC.net Terms of Service


Airport/ARTCC Code
Frequency Search
(e.g., 124.400, 128.75)
Site-wide search
 


Browse Feeds
Top 50 Feeds
HF Oceanic Feeds
Coverage Map
Bad Weather Areas

LiveATC FAQ
Offer LiveATC feed
Contact LiveATC.net
Press Inquiries

LiveATC on iPhone
LiveATC on Android

Windows Phone
Windows 8/10

LiveATC Mobile
(Mobile browser)

ATC Audio Archives
Interesting Recordings

LiveATC Forums


Home Page
About LiveATC.net
Make a Donation
Terms of Use
Privacy Policy

Canadian Air Freqs

AIRMETs/SIGMETs

FAA Airport Status
NAS Status
Arrival Demand


Server Software By:
Icecast.org
Liquidsoap